Regional Weather Roundup
Issued by NWS

Home | Current Version | Previous Version | Graphics & Text | Print | Product List | Glossary On
Versions: 1 2 3 4 5 6 7 8 9 10 11 12 13 14 15 16 17 18 19 20 21 22 23 24 25 26 27 28 29 30 31 32 33 34 35 36 37 38 39 40 41 42 43 44 45 46 47 48 49 50
000
ASUS43 KOAX 231610
RWRNE

WEATHER ROUNDUP FOR NEBRASKA
NATIONAL WEATHER SERVICE OMAHA NE
1000 AM CST SUN NOV 23 2014

NOTES: SATELLITE DATA IS BEING USED TO AUGMENT CLOUD COVER ABOVE
       12000 FEET.
       "FAIR" INDICATES FEW OR NO CLOUDS BELOW 12,000 FEET WITH NO
       SIGNIFICANT WEATHER AND/OR OBSTRUCTIONS TO VISIBILITY.

  * THESE STATIONS DO NOT REPORT WEATHER SUCH AS RAIN...SNOW OR FOG.

NEZ001>004-019>022-054>056-231700-
NEBRASKA PANHANDLE

CITY           SKY/WX    TMP DP  RH WIND       PRES   REMARKS
SCOTTSBLUFF    MOSUNNY   36  21  54 NW15      29.76S WCI  27
ALLIANCE       SUNNY     38  16  40 NW26G37   29.73R WCI  26
CHADRON        SUNNY     36  20  52 NW17G24   29.78R WCI  26
KIMBALL        MOSUNNY   35  16  44 N26       29.74R WCI  23
SIDNEY         MOSUNNY   36  16  44 N24G32    29.75R WCI  24
$$

NEZ057>060-069>072-079>082-231700-
SOUTHWEST NEBRASKA

CITY           SKY/WX    TMP DP  RH WIND       PRES   REMARKS
NORTH PLATTE   CLOUDY    43  20  39 N18G28    29.69R
IMPERIAL       CLOUDY    41  17  38 N21G33    29.72R
LEXINGTON      CLOUDY    44  28  52 N26G32    29.66R
MCCOOK         CLOUDY    45  22  40 N28G33    29.67R
OGALLALA       CLOUDY    41  20  42 N18G26    29.72R
$$

NEZ005>010-023>029-035>040-094-231700-
NORTH CENTRAL NEBRASKA

CITY           SKY/WX    TMP DP  RH WIND       PRES   REMARKS
VALENTINE      CLOUDY    41  25  53 NW22G29   29.68R
AINSWORTH      CLOUDY    39  27  62 NW21G26   29.68R WCI  29
BROKEN BOW     CLOUDY    43  28  55 N26G37    29.65R
O`NEILL        CLOUDY    42  34  72 NW17G23   29.65R
ORD            CLOUDY    43  29  57 N18G26    29.63R
THEDFORD       CLOUDY    42  24  48 N22G29    29.69R
$$

NEZ041-046>049-061>064-073>077-083>087-231700-
SOUTH CENTRAL NEBRASKA

CITY           SKY/WX    TMP DP  RH WIND       PRES   REMARKS
AURORA         RAIN      42  38  86 N25G32    29.61R
HASTINGS       LGT RAIN  42  36  79 N16G28    29.61R
HEBRON         CLOUDY    46  38  73 N18G31    29.53R
HOLDREGE       CLOUDY    41  34  76 N17G25    29.62S
KEARNEY *      CLOUDY    39  34  81 NW23      29.64S WCI  29
YORK           LGT RAIN  45  39  81 N14G28    29.56S
$$

NEZ011>018-030>034-042>045-231700-
NORTHEAST NEBRASKA

CITY           SKY/WX    TMP DP  RH WIND       PRES   REMARKS
NORFOLK        LGT RAIN  42  37  82 NW23G39   29.56R
ALBION         LGT RAIN  40  37  89 NW20G28   29.60R WCI  31
BLAIR          LGT RAIN  51  47  88 NW9       29.48R
COLUMBUS *     CLOUDY    43  36  75 NW13      29.59S
FREMONT        CLOUDY    47  38  71 NW20G26   29.51S
TEKAMAH        CLOUDY    48  40  73 NW24G32   29.49S
WAYNE          CLOUDY    44  39  83 NW15G23   29.56R
$$

NEZ050>053-065>068-078-088>093-231700-
SOUTHEAST NEBRASKA

CITY           SKY/WX    TMP DP  RH WIND       PRES   REMARKS
LINCOLN        CLOUDY    48  39  71 N22G31    29.51R
OMAHA EPPLEY   CLOUDY    53  52  96 S5        29.47F
BEATRICE       CLOUDY    53  51  95 W6        29.47F
FALLS CITY     LGT RAIN  54  53  97 S6        29.47S FOG
NEBRASKA CITY  DRIZZLE   54  54 100 SW6       29.46F
PLATTSMOUTH    CLOUDY    54  53  95 S6        29.46F
$$

NEZ044-045-051>053-067-231700-
OMAHA AREA

CITY           SKY/WX    TMP DP  RH WIND       PRES   REMARKS
OMAHA EPPLEY   CLOUDY    53  52  96 S5        29.47F
BLAIR          LGT RAIN  51  47  88 NW9       29.48R
FREMONT        CLOUDY    47  38  71 NW20G26   29.51S
MILLARD        LGT RAIN  52  48  88 NW12G18   29.48S
OFFUTT AFB     CLOUDY    54  52  94 SE1       29.46F
PLATTSMOUTH    CLOUDY    54  53  95 S6        29.46F
WAHOO          PTSUNNY   46  38  74 N18G28    29.50S
$$



USA.gov is the U.S. government's official web portal to all federal, state and local government web resources and services.